GW1838 Weather Reports


time (UTC)temp
F
wind
direction
speed
knots
gust
knots
rain 1hr
in
rain 24hr
in
rain mn
in
humidity
%
barometer
mb
20260505064807 56 208 6.1 10.4 0.00 0.00 0.00 90 1010.3
20260505062807 56 213 7.0 13.0 0.00 0.00 0.00 90 1010.3
20260505062307 56 221 5.2 11.3 0.00 0.00 0.00 90 1010.4
20260505061307 56 223 5.2 10.4 0.00 0.00 0.00 90 1010.4
20260505055807 55 216 6.1 10.4 0.00 0.00 0.00 90 1010.5
20260505055308 55 201 7.8 13.0 0.00 0.00 0.00 90 1010.5
20260505054807 55 201 7.8 13.0 0.00 0.00 0.00 90 1010.5
20260505054307 54 192 10.4 13.9 0.00 0.00 0.00 90 1010.7
20260505052807 54 195 9.6 14.8 0.00 0.00 0.00 90 1010.7
20260505052308 54 200 8.7 15.6 0.00 0.00 0.00 90 1010.8
20260505050307 54 200 7.8 12.2 0.00 0.00 0.00 89 1011.0
20260505041307 53 200 5.2 11.3 0.00 0.00 0.00 90 1011.3
20260505040835 53 199 7.8 11.3 0.00 0.00 0.00 90 1011.3
20260505033306 53 191 5.2 12.2 0.00 0.00 0.00 90 1011.3
20260505031307 54 198 7.8 12.2 0.00 0.00 0.00 89 1011.5
20260505030806 54 198 5.2 11.3 0.00 0.00 0.00 89 1011.5
20260505030307 54 193 7.8 12.2 0.00 0.00 0.00 89 1011.5
20260505025807 54 198 7.8 13.9 0.00 0.00 0.00 88 1011.5
20260505025306 55 193 7.8 14.8 0.00 0.00 0.00 87 1011.6
20260505024306 55 197 8.7 15.6 0.00 0.00 0.00 87 1011.5
20260505023807 55 203 7.8 14.8 0.00 0.00 0.00 87 1011.6
20260505021307 56 206 9.6 20.0 0.00 0.00 0.00 85 1011.6
20260505015307 57 206 9.6 13.9 0.00 0.00 0.00 83 1011.5
20260505014307 57 216 7.8 13.9 0.00 0.00 0.00 82 1011.5
20260505013307 56 199 7.0 11.3 0.00 0.00 0.00 83 1011.4
20260505012808 56 186 7.8 11.3 0.00 0.00 0.00 83 1011.4
20260505011806 56 193 6.1 10.4 0.00 0.00 0.00 84 1011.3
20260505010807 57 206 5.2 10.4 0.00 0.00 0.00 82 1011.2
20260505005306 57 209 6.1 12.2 0.00 0.00 0.00 82 1011.0
20260505004806 57 205 5.2 10.4 0.00 0.00 0.00 82 1011.0
20260505004306 57 210 6.1 12.2 0.00 0.00 0.00 83 1010.9
20260505003806 56 207 5.2 10.4 0.00 0.00 0.00 84 1011.0
20260505002806 55 207 7.8 12.2 0.00 0.00 0.00 86 1010.9
20260505000307 54 196 7.8 14.8 0.00 0.00 0.00 87 1010.6
20260504234807 54 200 7.0 12.2 0.00 0.00 0.00 87 1010.6
20260504234306 54 197 5.2 14.8 0.00 0.00 0.00 86 1010.6
20260504233807 55 193 7.8 17.4 0.00 0.00 0.00 86 1010.6
20260504233306 55 209 5.2 12.2 0.00 0.00 0.00 86 1010.6
20260504232807 55 197 7.0 12.2 0.00 0.00 0.00 86 1010.7
20260504232307 55 199 8.7 12.2 0.00 0.00 0.00 85 1010.6
20260504231807 55 200 7.8 13.9 0.00 0.00 0.00 85 1010.7
20260504231306 55 196 7.8 13.9 0.00 0.00 0.00 85 1010.6
20260504230307 55 213 6.1 11.3 0.00 0.00 0.00 84 1010.7
20260504225806 55 199 6.1 12.2 0.00 0.00 0.00 84 1010.5
20260504225306 56 195 7.0 13.0 0.00 0.00 0.00 84 1010.5
20260504223807 56 203 10.4 17.4 0.00 0.00 0.00 83 1010.5
20260504223306 56 216 7.8 13.9 0.00 0.00 0.00 83 1010.5
20260504222306 56 203 8.7 14.8 0.00 0.00 0.00 82 1010.4
20260504221806 56 199 8.7 14.8 0.00 0.00 0.00 83 1010.4
20260504221307 56 201 9.6 15.6 0.00 0.00 0.00 82 1010.4
20260504220807 56 201 8.7 17.4 0.00 0.00 0.00 82 1010.4
20260504220307 56 204 10.4 19.1 0.00 0.00 0.00 83 1010.3
20260504215306 56 198 12.2 20.9 0.00 0.00 0.00 82 1010.2
20260504214306 56 199 10.4 17.4 0.00 0.00 0.00 82 1010.2
20260504213307 56 189 11.3 20.9 0.00 0.00 0.00 82 1010.3
20260504212806 56 200 12.2 18.2 0.00 0.00 0.00 82 1010.4
20260504211806 57 190 10.4 20.9 0.00 0.00 0.00 82 1010.3
20260504211306 57 199 10.4 15.6 0.00 0.00 0.00 82 1010.4
20260504210806 57 201 9.6 18.2 0.00 0.00 0.00 82 1010.3
20260504204306 57 202 10.4 18.2 0.00 0.00 0.00 82 1010.3
20260504203306 57 199 10.4 17.4 0.00 0.00 0.00 82 1010.3
20260504202807 56 201 10.4 18.2 0.00 0.00 0.00 82 1010.2
20260504202306 56 193 10.4 18.2 0.00 0.00 0.00 82 1010.2
20260504200808 57 191 12.2 17.4 0.00 0.00 0.00 81 1010.3
20260504195806 57 184 11.3 19.1 0.00 0.00 0.00 81 1010.5
20260504191806 57 190 11.3 17.4 0.00 0.00 0.00 79 1010.8
20260504191306 57 179 10.4 17.4 0.00 0.00 0.00 79 1010.9
20260504185806 58 196 11.3 15.6 0.00 0.00 0.00 78 1011.0
20260504183806 58 202 13.9 20.0 0.00 0.00 0.00 76 1011.4
20260504181806 58 195 10.4 17.4 0.00 0.00 0.00 77 1011.6
20260504175806 58 195 11.3 18.2 0.00 0.00 0.00 78 1011.8
20260504175306 58 191 9.6 21.7 0.00 0.00 0.00 78 1011.9
20260504174807 58 190 12.2 21.7 0.00 0.00 0.00 78 1012.0
20260504174306 58 194 11.3 18.2 0.00 0.00 0.00 79 1012.0
20260504173807 58 176 9.6 15.6 0.00 0.00 0.00 78 1012.1
20260504173307 58 191 10.4 20.0 0.00 0.00 0.00 79 1012.0
20260504172306 58 202 10.4 17.4 0.00 0.00 0.00 78 1012.1
20260504150306 57 194 11.3 17.4 0.00 0.00 0.00 77 1013.4
20260504141307 57 191 8.7 15.6 0.00 0.00 0.00 78 1013.7
20260504140306 57 189 8.7 14.8 0.00 0.00 0.00 77 1013.8
20260504130806 57 217 7.8 12.2 0.00 0.00 0.00 72 1014.2
20260504130306 57 225 7.0 11.3 0.00 0.00 0.00 73 1014.2
20260504120306 55 226 7.8 12.2 0.00 0.00 0.00 74 1014.6
20260504100305 52 241 6.1 12.2 0.00 0.00 0.00 76 1014.7
20260504081806 52 243 8.7 13.9 0.00 0.00 0.00 72 1014.6
20260504080805 52 240 7.8 13.9 0.00 0.00 0.00 72 1014.7
20260504070306 53 243 8.7 14.8 0.00 0.00 0.00 65 1014.1